Location: Sternwarte Stuttgart
(48.7670°N, 9.1830°E)
Time: 20:06:05
(UTC+01:00)

Daily predictions for brighter satellites

Satellite Brightness Start Highest point End
(mag) Time Altitude Azimuth Time Altitude Azimuth Time Altitude Azimuth
ATLAS 2AS CENTAUR R/B 4.4 18:18:46 10° WNW 18:25:32 28° N 18:32:17 10° ENE
Nadezhda 1 Rocket 4.2 18:20:46 10° N 18:26:53 81° W 18:32:56 10° S
Cosmos 1140 Rocket 4.2 18:23:29 10° SSE 18:28:00 32° ESE 18:32:34 10° NE
USA 215 3.5 18:23:25 10° NE 18:29:56 71° NNW 18:36:25 10° WSW
TSX-5 3.9 18:27:37 10° S 18:30:32 36° ESE 18:33:40 10° NE
Genesis I 3.2 18:29:06 10° NW 18:33:02 64° NE 18:36:57 10° SE
Cosmos 2237 Rocket 3.5 18:31:20 10° N 18:35:44 22° NE 18:40:08 10° E
Gbstr 26 Del rocket 4.1 18:32:50 10° SSW 18:35:52 22° SE 18:38:51 10° E
COSMOS 2428 3.0 18:31:21 10° NNW 18:36:52 48° NE 18:42:21 10° SE
Cosmos 2237 4.3 18:31:16 10° NNW 18:36:58 58° ENE 18:42:36 10° SE
Cosmos 1484 Rocket 4.0 18:34:01 10° S 18:37:50 48° W 18:41:37 10° NNW
Meteor 2-4 Rocket 4.0 18:36:21 10° N 18:41:40 43° ENE 18:46:49 10° SE
Meteor 1-13 Rocket 4.2 18:36:13 10° N 18:41:46 67° ENE 18:47:22 10° SSE
Cosmos 1190 Rocket 4.2 18:37:22 10° SSW 18:42:34 78° WNW 18:47:48 10° NNE
FREGAT/IRIS 2.8 18:42:11 10° SSE 18:45:10 49° ENE 18:48:11 10° N
Thor Agena Rocket 4.1 18:42:56 10° N 18:47:57 62° WNW 18:52:54 10° SSW
Cosmos 1633 2.8 18:45:25 10° S 18:48:59 49° E 18:52:34 10° NNE
Spot 2 Rocket 4.0 18:44:40 10° SE 18:49:19 38° ENE 18:54:01 10° N
Cosmos 2360 Rocket 2.5 18:44:19 10° NNW 18:49:59 76° WSW 18:55:37 10° SSE
Cosmos 2219 Rocket 2.8 18:45:16 10° NNW 18:50:27 37° NE 18:55:38 10° ESE
Cosmos 2181 Rocket 4.0 18:45:45 10° N 18:52:01 74° E 18:58:20 10° SSE
ASTRO F (AKARI) 4.4 18:49:03 10° NNE 18:52:38 69° ESE 18:56:01 10° S
SJ-6B 2.8 18:49:37 10° SSE 18:53:33 67° ENE 18:57:25 10° N
Cosmos 1238 Rocket 1.9 18:51:08 10° N 18:54:09 74° E 18:57:05 10° SSE
Cosmos 2208 Rocket 4.1 18:49:55 10° NNW 18:55:22 63° ENE 19:00:43 10° SE
Cosmos 1300 Rocket 3.7 18:51:51 10° S 18:56:10 55° E 19:00:31 10° NNE
Cosmos 2219 3.9 18:54:12 10° SSE 18:59:17 33° ESE 19:04:21 10° NE
Okean 2 4.4 18:55:56 10° NNE 18:59:31 27° ENE 19:03:06 10° SE
Cosmos 405 Rocket 4.0 18:56:20 10° NNE 18:59:37 23° ENE 19:02:21 12° ESE
Helios 1A 4.0 18:57:31 10° ESE 19:00:56 25° ENE 19:04:21 10° N
COSMO-SKYMED 1 3.1 18:56:57 10° N 19:01:15 63° WNW 19:05:32 10° SSW
Helios 1B rocket 4.0 18:59:45 10° NE 19:02:14 15° E 19:04:43 10° SE
Cosmos 1850 Rocket 4.4 18:57:34 10° S 19:02:31 41° ESE 19:07:32 10° NE
Envisat 4.3 19:03:20 14° E 19:06:00 21° ENE 19:09:43 10° NNE
CZ-2D R/B 4.0 19:03:29 10° SE 19:06:53 31° ENE 19:10:18 10° N
Cosmos 1709 Rocket 4.0 19:00:42 10° S 19:06:54 87° E 19:13:05 10° N
Cosmos 2074 Rocket 4.3 19:02:05 10° SSE 19:07:54 42° E 19:13:45 10° NNE
Resurs 01 Rocket 1.7 19:04:01 10° SE 19:08:17 52° ENE 19:12:35 10° N
Cosmos 1954 Rocket 4.0 19:03:10 10° SSW 19:08:23 88° ESE 19:13:40 10° NNE
H-2A R/B 3.1 19:05:08 10° SE 19:08:39 41° ENE 19:12:13 10° N
SL-16 R/B 3.7 19:06:20 10° N 19:10:27 20° NE 19:13:00 15° ENE
Cosmos 2184 Rocket 4.3 19:06:56 10° SSE 19:12:50 44° E 19:18:42 10° NNE
Resurs 1-3 3.6 19:17:31 10° SSE 19:21:50 60° ENE 19:26:11 10° N
Cosmos 1536 2.7 19:18:25 10° S 19:22:21 64° E 19:26:20 10° NNE
Cosmos 1939 Rocket 4.4 19:22:45 18° ENE 19:22:45 18° ENE 19:25:16 10° NNE
Meteor 1-11 Rocket 3.8 19:17:29 10° S 19:23:20 85° E 19:29:19 10° NNE
Nadezhda 3 Rocket 4.4 19:21:08 10° N 19:26:52 39° ENE 19:32:14 12° SE
Cosmos 1833 4.4 19:21:56 10° SSW 19:27:38 76° WNW 19:33:18 10° NNE
SL-08 ROCKET BODY 4.4 19:22:54 10° S 19:28:59 66° E 19:35:08 10° NNE
Cosmos 2333 Rocket 2.3 19:25:43 10° NNW 19:31:24 57° ENE 19:35:37 18° SE
Spot 1 4.0 19:30:29 14° SE 19:33:47 54° ENE 19:37:54 10° N
BREEZE-M DEB (TANK) 3.7 19:31:23 10° W 19:34:21 57° SSW 19:39:33 17° SE
Okean 1 Rocket 3.2 19:30:00 10° SSW 19:34:29 81° WNW 19:39:00 10° N
Cosmos 1892 Rocket 3.7 19:30:35 10° N 19:34:49 47° ENE 19:37:44 19° SE
HJ-1C 3.9 19:31:34 10° S 19:34:54 60° W 19:38:16 10° NNW
Cosmos 1980 3.9 19:29:46 10° NNW 19:35:17 50° NE 19:38:32 24° ESE
Cosmos 371 Rocket 4.4 19:33:10 10° N 19:37:10 25° NE 19:37:48 24° ENE
Cosmos 2285 Rocket 4.0 19:32:08 10° NNW 19:38:39 86° ENE 19:45:04 10° SSE
ALOS 2.8 19:36:20 10° S 19:40:57 61° W 19:45:37 10° NNW
NOSS 0 Rocket 3.9 19:35:06 10° NNW 19:41:16 70° ENE 19:45:49 19° SE
Cosmos 2154 Rocket 4.4 19:36:19 10° SSE 19:42:08 40° E 19:47:59 10° NNE
Cosmos 1025 Rocket 3.1 19:38:08 10° NNW 19:42:32 79° W 19:46:56 10° S
Cosmos 841 Rocket 4.2 19:38:15 10° N 19:42:55 33° NE 19:44:00 30° E
FENGYUN 3A 4.2 19:41:19 10° S 19:46:40 62° W 19:52:04 10° NNW
GEOS 3 Rocket 3.8 19:47:55 24° ENE 19:50:55 50° SE 19:56:02 10° SSW
SAR-Lupe-1 3.9 19:52:48 31° SSE 19:54:24 88° E 19:58:00 10° NNW
Cosmos 1741 Rocket 4.0 19:49:25 10° SSW 19:54:39 80° WNW 19:59:55 10° NNE
Cosmos 1763 Rocket 3.7 19:49:55 10° NNW 19:54:52 47° ENE 19:56:05 39° E
SAR-Lupe-4 3.6 19:52:42 20° S 19:55:03 79° WSW 19:58:39 10° NNW
Meteor 1-5 Rocket 4.3 19:53:47 10° S 19:59:45 88° E 20:05:39 10° NNE
BREEZE-M DEB (TANK) 4.2 19:57:27 10° SW 19:58:49 19° SSW 19:58:49 19° SSW
USA 229 DEB 4.2 19:53:38 10° NW 20:00:39 62° SW 20:07:19 12° SSE
USA 229 4.2 19:53:44 10° NW 20:00:45 63° SW 20:07:21 12° SSE
CZ-4B DEB 4.4 20:02:52 74° ENE 20:02:52 74° ENE 20:06:23 10° N
USA 186 2.6 20:03:52 39° NNW 20:03:52 39° NNW 20:05:47 10° NNW
Cosmos 1544 Rocket 3.6 20:03:19 54° ENE 20:03:19 54° ENE 20:07:16 10° NNE
USA 215 4.0 20:08:31 22° NE 20:12:29 45° N 20:18:37 10° WNW
Meteor 1-12 Rocket 4.4 20:07:33 10° S 20:13:21 53° E 20:19:04 10° NNE
NOSS 3-1 (A) 4.0 20:06:01 10° NW 20:13:23 72° NE 20:16:52 38° ESE
Abrixas rocket 4.1 20:13:03 10° SW 20:14:38 23° SSW 20:14:38 23° SSW
ATLAS 2AS CENTAUR R/B 3.8 20:11:18 10° NW 20:18:52 39° NNE 20:21:30 32° ENE
Cosmos 1626 Rocket 4.4 20:15:01 10° N 20:18:07 38° NNE 20:18:07 38° NNE
Cosmos 2237 Rocket 2.1 20:14:50 10° NNW 20:20:35 87° WSW 20:22:36 42° SSE
COSMOS 2428 4.3 20:15:58 10° NW 20:20:59 33° WSW 20:25:59 10° SSW
Cosmos 468 Rocket 4.4 20:16:27 10° NNW 20:21:38 62° WSW 20:24:41 25° S
Gbstr 26 Del rocket 2.9 20:18:33 10° WSW 20:21:43 62° WSW 20:21:43 62° WSW
Meteor 2-8 Rocket 4.3 20:17:08 10° N 20:23:11 65° ENE 20:24:35 50° SE
Cosmos 1066 Rocket 4.1 20:17:36 10° N 20:23:18 71° ENE 20:24:22 56° SE
ARGOS 4.4 20:27:09 26° NE 20:27:09 26° NE 20:30:22 10° N
Cosmos 1437 4.3 20:23:16 10° NNW 20:25:24 34° NW 20:25:24 34° NW
Cosmos 1515 4.1 20:23:31 10° NNW 20:26:52 60° NW 20:26:52 60° NW
NOSS 3-1 (C) 4.0 20:24:33 10° NW 20:32:01 82° SW 20:35:32 38° SSE
Cosmos 2219 Rocket 3.2 20:29:14 10° NW 20:34:31 44° WSW 20:38:13 19° S
Cosmos 405 Rocket 4.3 20:32:02 10° NNW 20:35:47 36° W 20:37:40 23° SW
Helios 1A 4.4 20:33:47 18° SSW 20:36:22 36° W 20:40:14 10° NNW
SPOT 5 4.2 20:38:45 29° NNE 20:38:45 29° NNE 20:41:37 10° N
Helios 1B rocket 2.9 20:33:49 10° N 20:37:56 59° WNW 20:42:00 10° SSW
Cosmos 1814 Rocket 4.5 20:36:11 10° NNW 20:41:14 55° WSW 20:42:40 41° SSW
USA 32 4.0 20:37:49 10° N 20:43:05 82° W 20:43:33 73° SSW
Cosmos 2219 4.1 20:37:42 10° SW 20:43:16 48° NW 20:48:50 10° NNE
ERS-1 Rocket 3.1 20:45:16 65° N 20:45:16 65° N 20:49:37 10° NNW
Envisat 3.2 20:43:32 53° SSW 20:44:33 67° WSW 20:49:38 10° NNW
Resurs 01 Rocket 4.2 20:41:55 10° SW 20:45:05 19° W 20:48:15 10° NW
Cosmos 2227 Rocket 3.6 20:41:04 10° SSW 20:43:21 25° SSW 20:43:21 25° SSW
SL-16 R/B 2.2 20:49:46 10° NNW 20:54:55 71° N 20:54:55 71° N
Cosmos 1295 Rocket 4.4 20:59:41 81° NE 20:59:41 81° NE 21:05:43 10° N
Cosmos 2333 Rocket 4.0 21:10:33 10° NW 21:15:19 27° WSW 21:17:42 21° SW
H-2A R/B 3.8 21:20:00 24° N 21:20:00 24° N 21:22:16 10° N
USA 215 4.0 21:55:51 45° NNW 21:55:51 45° NNW 22:01:04 10° WNW
ATLAS 2AS CENTAUR R/B 3.4 22:02:39 10° NW 22:08:57 58° NW 22:08:57 58° NW
